カタログに戻る

AMAZONAS 3

運用中通信GEO
NORAD 39078·PAYLOAD·🇧🇷 Brazil

打ち上げ Feb 7, 2013 から Guiana Space Centre

Loading…

TLE

最新Source: Space-Track

元期: Sep 14, 2026, 10:05 UTC

1 39078U 13006A   26257.42051113 -.00000291  00000-0  00000-0 0  9999
2 39078   0.0231 200.8080 0005122 354.8854 248.0963  1.00270717 45815

AllMySatでAMAZONAS 3をリアルタイム追跡

Download on the App Store